Location: Sungai Bunut
(2.6333°N, 113.7333°E)
Time: 09:42:10
(UTC+00:00)

Courier 1B - Pass Details

Date: 04 December 2023
Orbit: 962 x 1209 km, 28.3° (Epoch: 03 March)

Event Time Altitude Azimuth Distance (km) Brightness Sun altitude
Rises 12:28:16 0° 258° (WSW) 3,849 11.7 -31.6°
Reaches altitude 10° 12:32:25 10° 235° (SW) 2,950 10.8 -32.6°
Maximum altitude 12:36:15 15° 203° (SSW) 2,654 10.2 -33.5°
Drops below altitude 10° 12:40:10 10° 171° (S) 3,046 10.2 -34.3°
Sets 12:44:37 0° 149° (SSE) 4,052 10.7 -35.3°
